owner,sensor,date,latitude,longitude,air_pressure(mBar),qcFlag 
LOOP,urn:ioos:station:wmo:lopl1:1,2017-12-01T00:51:00Z,28.8850,-90.0250,1019.1,1111122 
LOOP,urn:ioos:station:wmo:lopl1:1,2017-12-01T01:51:00Z,28.8850,-90.0250,1019.1,1111122 
LOOP,urn:ioos:station:wmo:lopl1:1,2017-12-01T02:51:00Z,28.8850,-90.0250,1019.1,1111122 
LOOP,urn:ioos:station:wmo:lopl1:1,2017-12-01T03:51:00Z,28.8850,-90.0250,1019.1,1111122 
LOOP,urn:ioos:station:wmo:lopl1:1,2017-12-01T04:51:00Z,28.8850,-90.0250,1019.1,1111122 
LOOP,urn:ioos:station:wmo:lopl1:1,2017-12-01T05:51:00Z,28.8850,-90.0250,1019.1,1111122 
LOOP,urn:ioos:station:wmo:lopl1:1,2017-12-01T06:51:00Z,28.8850,-90.0250,1019.1,1111122 
LOOP,urn:ioos:station:wmo:lopl1:1,2017-12-01T07:51:00Z,28.8850,-90.0250,1018.1,1111122 
LOOP,urn:ioos:station:wmo:lopl1:1,2017-12-01T08:51:00Z,28.8850,-90.0250,1019.1,1111122 
LOOP,urn:ioos:station:wmo:lopl1:1,2017-12-01T09:56:00Z,28.8850,-90.0250,1019.1,1111122 
LOOP,urn:ioos:station:wmo:lopl1:1,2017-12-01T10:56:00Z,28.8850,-90.0250,1019.1,1111122 
LOOP,urn:ioos:station:wmo:lopl1:1,2017-12-01T11:56:00Z,28.8850,-90.0250,1019.1,1111122 
LOOP,urn:ioos:station:wmo:lopl1:1,2017-12-01T12:56:00Z,28.8850,-90.0250,1020.1,1111122 
LOOP,urn:ioos:station:wmo:lopl1:1,2017-12-01T13:56:00Z,28.8850,-90.0250,1020.1,1111122 
LOOP,urn:ioos:station:wmo:lopl1:1,2017-12-01T14:56:00Z,28.8850,-90.0250,1020.1,1111122 
LOOP,urn:ioos:station:wmo:lopl1:1,2017-12-01T15:56:00Z,28.8850,-90.0250,1020.1,1111122 
LOOP,urn:ioos:station:wmo:lopl1:1,2017-12-01T16:56:00Z,28.8850,-90.0250,1020.1,1111122 
LOOP,urn:ioos:station:wmo:lopl1:1,2017-12-01T17:56:00Z,28.8850,-90.0250,1019.1,1111122 
LOOP,urn:ioos:station:wmo:lopl1:1,2017-12-01T18:56:00Z,28.8850,-90.0250,1019.1,1111122 
LOOP,urn:ioos:station:wmo:lopl1:1,2017-12-01T19:56:00Z,28.8850,-90.0250,1018.1,1111122 
LOOP,urn:ioos:station:wmo:lopl1:1,2017-12-01T20:56:00Z,28.8850,-90.0250,1018.1,1111122 
LOOP,urn:ioos:station:wmo:lopl1:1,2017-12-01T21:56:00Z,28.8850,-90.0250,1018.1,1111122 
LOOP,urn:ioos:station:wmo:lopl1:1,2017-12-01T22:56:00Z,28.8850,-90.0250,1019.1,1111122 
LOOP,urn:ioos:station:wmo:lopl1:1,2017-12-01T23:56:00Z,28.8850,-90.0250,1019.1,1111122 
LOOP,urn:ioos:station:wmo:lopl1:1,2017-12-02T00:56:00Z,28.8850,-90.0250,1019.1,1111122 
LOOP,urn:ioos:station:wmo:lopl1:1,2017-12-02T01:56:00Z,28.8850,-90.0250,1020.1,1111122 
LOOP,urn:ioos:station:wmo:lopl1:1,2017-12-02T02:56:00Z,28.8850,-90.0250,1020.1,1111122 
LOOP,urn:ioos:station:wmo:lopl1:1,2017-12-02T03:56:00Z,28.8850,-90.0250,1020.1,1111122 
LOOP,urn:ioos:station:wmo:lopl1:1,2017-12-02T04:56:00Z,28.8850,-90.0250,1020.1,1111122 
LOOP,urn:ioos:station:wmo:lopl1:1,2017-12-02T05:56:00Z,28.8850,-90.0250,1019.1,1111122 
LOOP,urn:ioos:station:wmo:lopl1:1,2017-12-02T06:56:00Z,28.8850,-90.0250,1019.1,1111122 
LOOP,urn:ioos:station:wmo:lopl1:1,2017-12-02T07:56:00Z,28.8850,-90.0250,1019.1,1111122 
LOOP,urn:ioos:station:wmo:lopl1:1,2017-12-02T08:56:00Z,28.8850,-90.0250,1018.1,1111122 
LOOP,urn:ioos:station:wmo:lopl1:1,2017-12-02T09:56:00Z,28.8850,-90.0250,1018.1,1111122 
LOOP,urn:ioos:station:wmo:lopl1:1,2017-12-02T10:56:00Z,28.8850,-90.0250,1019.1,1111122 
LOOP,urn:ioos:station:wmo:lopl1:1,2017-12-02T11:56:00Z,28.8850,-90.0250,1019.1,1111122 
LOOP,urn:ioos:station:wmo:lopl1:1,2017-12-02T12:56:00Z,28.8850,-90.0250,1020.1,1111122 
LOOP,urn:ioos:station:wmo:lopl1:1,2017-12-02T13:56:00Z,28.8850,-90.0250,1020.1,1111122 
LOOP,urn:ioos:station:wmo:lopl1:1,2017-12-02T15:01:00Z,28.8850,-90.0250,1021.1,1111122 
LOOP,urn:ioos:station:wmo:lopl1:1,2017-12-02T16:01:00Z,28.8850,-90.0250,1021.1,1111122 
LOOP,urn:ioos:station:wmo:lopl1:1,2017-12-02T17:01:00Z,28.8850,-90.0250,1020.1,1111122 
LOOP,urn:ioos:station:wmo:lopl1:1,2017-12-02T18:01:00Z,28.8850,-90.0250,1020.1,1111122 
LOOP,urn:ioos:station:wmo:lopl1:1,2017-12-02T19:01:00Z,28.8850,-90.0250,1019.1,1111122 
LOOP,urn:ioos:station:wmo:lopl1:1,2017-12-02T20:01:00Z,28.8850,-90.0250,1019.1,1111122 
LOOP,urn:ioos:station:wmo:lopl1:1,2017-12-02T21:01:00Z,28.8850,-90.0250,1019.1,1111122 
LOOP,urn:ioos:station:wmo:lopl1:1,2017-12-02T22:01:00Z,28.8850,-90.0250,1019.1,1111122 
LOOP,urn:ioos:station:wmo:lopl1:1,2017-12-02T23:01:00Z,28.8850,-90.0250,1019.1,1111122 
LOOP,urn:ioos:station:wmo:lopl1:1,2017-12-03T00:01:00Z,28.8850,-90.0250,1020.1,1111122 
LOOP,urn:ioos:station:wmo:lopl1:1,2017-12-03T01:01:00Z,28.8850,-90.0250,1020.1,1111122 
LOOP,urn:ioos:station:wmo:lopl1:1,2017-12-03T02:01:00Z,28.8850,-90.0250,1021.1,1111122 
LOOP,urn:ioos:station:wmo:lopl1:1,2017-12-03T03:01:00Z,28.8850,-90.0250,1021.1,1111122 
LOOP,urn:ioos:station:wmo:lopl1:1,2017-12-03T04:01:00Z,28.8850,-90.0250,1021.1,1111122 
LOOP,urn:ioos:station:wmo:lopl1:1,2017-12-03T05:01:00Z,28.8850,-90.0250,1020.1,1111122 
LOOP,urn:ioos:station:wmo:lopl1:1,2017-12-03T06:01:00Z,28.8850,-90.0250,1020.1,1111122 
LOOP,urn:ioos:station:wmo:lopl1:1,2017-12-03T07:01:00Z,28.8850,-90.0250,1020.1,1111122 
LOOP,urn:ioos:station:wmo:lopl1:1,2017-12-03T08:01:00Z,28.8850,-90.0250,1020.1,1111122 
LOOP,urn:ioos:station:wmo:lopl1:1,2017-12-03T09:01:00Z,28.8850,-90.0250,1019.1,1111122 
LOOP,urn:ioos:station:wmo:lopl1:1,2017-12-03T10:01:00Z,28.8850,-90.0250,1019.1,1111122 
LOOP,urn:ioos:station:wmo:lopl1:1,2017-12-03T11:01:00Z,28.8850,-90.0250,1019.1,1111122 
LOOP,urn:ioos:station:wmo:lopl1:1,2017-12-03T12:01:00Z,28.8850,-90.0250,1020.1,1111122 
LOOP,urn:ioos:station:wmo:lopl1:1,2017-12-03T13:01:00Z,28.8850,-90.0250,1021.1,1111122 
LOOP,urn:ioos:station:wmo:lopl1:1,2017-12-03T14:01:00Z,28.8850,-90.0250,1021.1,1111122 
LOOP,urn:ioos:station:wmo:lopl1:1,2017-12-03T15:01:00Z,28.8850,-90.0250,1021.1,1111122 
LOOP,urn:ioos:station:wmo:lopl1:1,2017-12-03T16:01:00Z,28.8850,-90.0250,1021.1,1111122 
LOOP,urn:ioos:station:wmo:lopl1:1,2017-12-03T17:01:00Z,28.8850,-90.0250,1020.1,1111122 
LOOP,urn:ioos:station:wmo:lopl1:1,2017-12-03T18:01:00Z,28.8850,-90.0250,1019.1,1111122 
LOOP,urn:ioos:station:wmo:lopl1:1,2017-12-03T19:01:00Z,28.8850,-90.0250,1018.1,1111122 
LOOP,urn:ioos:station:wmo:lopl1:1,2017-12-03T20:01:00Z,28.8850,-90.0250,1018.1,1111122 
LOOP,urn:ioos:station:wmo:lopl1:1,2017-12-03T21:01:00Z,28.8850,-90.0250,1018.1,1111122 
LOOP,urn:ioos:station:wmo:lopl1:1,2017-12-03T22:01:00Z,28.8850,-90.0250,1018.1,1111122 
LOOP,urn:ioos:station:wmo:lopl1:1,2017-12-03T23:01:00Z,28.8850,-90.0250,1018.1,1111122 
LOOP,urn:ioos:station:wmo:lopl1:1,2017-12-04T00:01:00Z,28.8850,-90.0250,1018.1,11111222 
LOOP,urn:ioos:station:wmo:lopl1:1,2017-12-04T00:21:00Z,28.8850,-90.0250,1018.1,11111222 
LOOP,urn:ioos:station:wmo:lopl1:1,2017-12-04T01:21:00Z,28.8850,-90.0250,1019.1,11111222 
LOOP,urn:ioos:station:wmo:lopl1:1,2017-12-04T02:21:00Z,28.8850,-90.0250,1019.1,1111122 
LOOP,urn:ioos:station:wmo:lopl1:1,2017-12-04T03:21:00Z,28.8850,-90.0250,1019.1,1111122 
LOOP,urn:ioos:station:wmo:lopl1:1,2017-12-04T04:21:00Z,28.8850,-90.0250,1019.1,1111122 
LOOP,urn:ioos:station:wmo:lopl1:1,2017-12-04T05:21:00Z,28.8850,-90.0250,1019.1,1111122 
LOOP,urn:ioos:station:wmo:lopl1:1,2017-12-04T06:21:00Z,28.8850,-90.0250,1018.1,1111122 
LOOP,urn:ioos:station:wmo:lopl1:1,2017-12-04T07:21:00Z,28.8850,-90.0250,1017.1,1111122 
LOOP,urn:ioos:station:wmo:lopl1:1,2017-12-04T08:21:00Z,28.8850,-90.0250,1017.1,1111122 
LOOP,urn:ioos:station:wmo:lopl1:1,2017-12-04T09:21:00Z,28.8850,-90.0250,1017.1,1111122 
LOOP,urn:ioos:station:wmo:lopl1:1,2017-12-04T10:21:00Z,28.8850,-90.0250,1017.1,1111122 
LOOP,urn:ioos:station:wmo:lopl1:1,2017-12-04T11:21:00Z,28.8850,-90.0250,1017.1,1111122 
LOOP,urn:ioos:station:wmo:lopl1:1,2017-12-04T12:21:00Z,28.8850,-90.0250,1018.1,1111122 
LOOP,urn:ioos:station:wmo:lopl1:1,2017-12-04T13:21:00Z,28.8850,-90.0250,1018.1,1111122 
LOOP,urn:ioos:station:wmo:lopl1:1,2017-12-04T14:21:00Z,28.8850,-90.0250,1018.1,1111122 
LOOP,urn:ioos:station:wmo:lopl1:1,2017-12-04T15:21:00Z,28.8850,-90.0250,1019.1,1111122 
LOOP,urn:ioos:station:wmo:lopl1:1,2017-12-04T16:21:00Z,28.8850,-90.0250,1019.1,1111122 
LOOP,urn:ioos:station:wmo:lopl1:1,2017-12-04T17:21:00Z,28.8850,-90.0250,1018.1,1111122 
LOOP,urn:ioos:station:wmo:lopl1:1,2017-12-04T18:21:00Z,28.8850,-90.0250,1017.1,1111122 
LOOP,urn:ioos:station:wmo:lopl1:1,2017-12-04T19:21:00Z,28.8850,-90.0250,1017.1,1111122 
LOOP,urn:ioos:station:wmo:lopl1:1,2017-12-04T20:21:00Z,28.8850,-90.0250,1017.1,1111122 
LOOP,urn:ioos:station:wmo:lopl1:1,2017-12-04T21:21:00Z,28.8850,-90.0250,1017.1,1111122 
LOOP,urn:ioos:station:wmo:lopl1:1,2017-12-04T22:21:00Z,28.8850,-90.0250,1017.1,1111122 
LOOP,urn:ioos:station:wmo:lopl1:1,2017-12-04T23:21:00Z,28.8850,-90.0250,1017.1,1111122 
LOOP,urn:ioos:station:wmo:lopl1:1,2017-12-05T00:21:00Z,28.8850,-90.0250,1017.1,1111122 
LOOP,urn:ioos:station:wmo:lopl1:1,2017-12-05T01:21:00Z,28.8850,-90.0250,1018.1,1111122 
LOOP,urn:ioos:station:wmo:lopl1:1,2017-12-05T02:21:00Z,28.8850,-90.0250,1018.1,1111122 
LOOP,urn:ioos:station:wmo:lopl1:1,2017-12-05T03:21:00Z,28.8850,-90.0250,1018.1,1111122 
LOOP,urn:ioos:station:wmo:lopl1:1,2017-12-05T04:21:00Z,28.8850,-90.0250,1017.1,1111122 
LOOP,urn:ioos:station:wmo:lopl1:1,2017-12-05T05:21:00Z,28.8850,-90.0250,1018.1,1111122 
LOOP,urn:ioos:station:wmo:lopl1:1,2017-12-05T06:21:00Z,28.8850,-90.0250,1017.1,1111122 
LOOP,urn:ioos:station:wmo:lopl1:1,2017-12-05T07:21:00Z,28.8850,-90.0250,1018.1,1111122 
LOOP,urn:ioos:station:wmo:lopl1:1,2017-12-05T08:21:00Z,28.8850,-90.0250,1018.1,1111122 
LOOP,urn:ioos:station:wmo:lopl1:1,2017-12-05T09:21:00Z,28.8850,-90.0250,1018.1,1111122 
LOOP,urn:ioos:station:wmo:lopl1:1,2017-12-05T10:26:00Z,28.8850,-90.0250,1018.1,1111122 
LOOP,urn:ioos:station:wmo:lopl1:1,2017-12-05T11:26:00Z,28.8850,-90.0250,1018.1,1111122 
LOOP,urn:ioos:station:wmo:lopl1:1,2017-12-05T12:26:00Z,28.8850,-90.0250,1018.1,1111122 
LOOP,urn:ioos:station:wmo:lopl1:1,2017-12-05T13:26:00Z,28.8850,-90.0250,1019.1,1111122 
LOOP,urn:ioos:station:wmo:lopl1:1,2017-12-05T14:26:00Z,28.8850,-90.0250,1019.1,1111122 
LOOP,urn:ioos:station:wmo:lopl1:1,2017-12-05T15:26:00Z,28.8850,-90.0250,1019.1,1111122 
LOOP,urn:ioos:station:wmo:lopl1:1,2017-12-05T16:26:00Z,28.8850,-90.0250,1019.1,1111122 
LOOP,urn:ioos:station:wmo:lopl1:1,2017-12-05T17:26:00Z,28.8850,-90.0250,1019.1,1111122 
LOOP,urn:ioos:station:wmo:lopl1:1,2017-12-05T18:26:00Z,28.8850,-90.0250,1018.1,1111122 
LOOP,urn:ioos:station:wmo:lopl1:1,2017-12-05T19:26:00Z,28.8850,-90.0250,1017.1,1111122 
LOOP,urn:ioos:station:wmo:lopl1:1,2017-12-05T20:26:00Z,28.8850,-90.0250,1017.1,1111122 
LOOP,urn:ioos:station:wmo:lopl1:1,2017-12-05T21:26:00Z,28.8850,-90.0250,1017.1,1111122 
LOOP,urn:ioos:station:wmo:lopl1:1,2017-12-05T22:26:00Z,28.8850,-90.0250,1018.1,1111122 
LOOP,urn:ioos:station:wmo:lopl1:1,2017-12-05T23:26:00Z,28.8850,-90.0250,1018.1,1111122 
LOOP,urn:ioos:station:wmo:lopl1:1,2017-12-06T00:26:00Z,28.8850,-90.0250,1018.1,1111122 
LOOP,urn:ioos:station:wmo:lopl1:1,2017-12-06T01:26:00Z,28.8850,-90.0250,1019.1,1111122 
LOOP,urn:ioos:station:wmo:lopl1:1,2017-12-06T02:26:00Z,28.8850,-90.0250,1019.1,1111122 
LOOP,urn:ioos:station:wmo:lopl1:1,2017-12-06T03:26:00Z,28.8850,-90.0250,1019.1,1111122 
LOOP,urn:ioos:station:wmo:lopl1:1,2017-12-06T04:26:00Z,28.8850,-90.0250,1019.1,1111122 
LOOP,urn:ioos:station:wmo:lopl1:1,2017-12-06T05:26:00Z,28.8850,-90.0250,1018.1,1111122 
LOOP,urn:ioos:station:wmo:lopl1:1,2017-12-06T06:26:00Z,28.8850,-90.0250,1018.1,1111122 
LOOP,urn:ioos:station:wmo:lopl1:1,2017-12-06T07:26:00Z,28.8850,-90.0250,1018.1,1111122 
LOOP,urn:ioos:station:wmo:lopl1:1,2017-12-06T08:26:00Z,28.8850,-90.0250,1017.1,1111122 
LOOP,urn:ioos:station:wmo:lopl1:1,2017-12-06T09:26:00Z,28.8850,-90.0250,1018.1,1111122 
LOOP,urn:ioos:station:wmo:lopl1:1,2017-12-06T10:26:00Z,28.8850,-90.0250,1017.1,1111122 
LOOP,urn:ioos:station:wmo:lopl1:1,2017-12-06T11:26:00Z,28.8850,-90.0250,1018.1,1111122 
LOOP,urn:ioos:station:wmo:lopl1:1,2017-12-06T12:26:00Z,28.8850,-90.0250,1018.1,1111122 
LOOP,urn:ioos:station:wmo:lopl1:1,2017-12-06T13:26:00Z,28.8850,-90.0250,1019.1,1111122 
LOOP,urn:ioos:station:wmo:lopl1:1,2017-12-06T14:26:00Z,28.8850,-90.0250,1019.1,1111122 
LOOP,urn:ioos:station:wmo:lopl1:1,2017-12-06T15:26:00Z,28.8850,-90.0250,1020.1,1111122 
LOOP,urn:ioos:station:wmo:lopl1:1,2017-12-06T16:26:00Z,28.8850,-90.0250,1022.1,1111122 
LOOP,urn:ioos:station:wmo:lopl1:1,2017-12-06T17:26:00Z,28.8850,-90.0250,1020.1,1111122 
LOOP,urn:ioos:station:wmo:lopl1:1,2017-12-06T18:26:00Z,28.8850,-90.0250,1018.1,1111122 
LOOP,urn:ioos:station:wmo:lopl1:1,2017-12-06T19:31:00Z,28.8850,-90.0250,1018.1,1111122 
LOOP,urn:ioos:station:wmo:lopl1:1,2017-12-06T20:31:00Z,28.8850,-90.0250,1017.1,1111122 
LOOP,urn:ioos:station:wmo:lopl1:1,2017-12-06T21:31:00Z,28.8850,-90.0250,1018.1,1111122 
LOOP,urn:ioos:station:wmo:lopl1:1,2017-12-06T22:31:00Z,28.8850,-90.0250,1018.1,1111122 
LOOP,urn:ioos:station:wmo:lopl1:1,2017-12-06T23:31:00Z,28.8850,-90.0250,1020.1,1111122 
LOOP,urn:ioos:station:wmo:lopl1:1,2017-12-07T00:31:00Z,28.8850,-90.0250,1020.1,1111122 
LOOP,urn:ioos:station:wmo:lopl1:1,2017-12-07T01:31:00Z,28.8850,-90.0250,1020.1,1111122 
LOOP,urn:ioos:station:wmo:lopl1:1,2017-12-07T02:31:00Z,28.8850,-90.0250,1021.1,1111122 
LOOP,urn:ioos:station:wmo:lopl1:1,2017-12-07T03:31:00Z,28.8850,-90.0250,1021.1,1111122 
LOOP,urn:ioos:station:wmo:lopl1:1,2017-12-07T04:31:00Z,28.8850,-90.0250,1020.1,1111122 
LOOP,urn:ioos:station:wmo:lopl1:1,2017-12-07T05:31:00Z,28.8850,-90.0250,1019.1,1111122 
LOOP,urn:ioos:station:wmo:lopl1:1,2017-12-07T06:31:00Z,28.8850,-90.0250,1019.1,1111122 
LOOP,urn:ioos:station:wmo:lopl1:1,2017-12-07T07:31:00Z,28.8850,-90.0250,1019.1,1111122 
LOOP,urn:ioos:station:wmo:lopl1:1,2017-12-07T08:31:00Z,28.8850,-90.0250,1019.1,1111122 
LOOP,urn:ioos:station:wmo:lopl1:1,2017-12-07T09:31:00Z,28.8850,-90.0250,1019.1,1111122 
LOOP,urn:ioos:station:wmo:lopl1:1,2017-12-07T10:31:00Z,28.8850,-90.0250,1019.1,1111122 
LOOP,urn:ioos:station:wmo:lopl1:1,2017-12-07T11:31:00Z,28.8850,-90.0250,1019.1,1111122 
LOOP,urn:ioos:station:wmo:lopl1:1,2017-12-07T12:31:00Z,28.8850,-90.0250,1019.1,1111122 
LOOP,urn:ioos:station:wmo:lopl1:1,2017-12-07T13:31:00Z,28.8850,-90.0250,1019.1,1111122 
LOOP,urn:ioos:station:wmo:lopl1:1,2017-12-07T14:31:00Z,28.8850,-90.0250,1020.1,1111122 
LOOP,urn:ioos:station:wmo:lopl1:1,2017-12-07T15:31:00Z,28.8850,-90.0250,1020.1,1111122 
LOOP,urn:ioos:station:wmo:lopl1:1,2017-12-07T16:36:00Z,28.8850,-90.0250,1020.1,1111122 
LOOP,urn:ioos:station:wmo:lopl1:1,2017-12-07T17:36:00Z,28.8850,-90.0250,1020.1,1111122 
LOOP,urn:ioos:station:wmo:lopl1:1,2017-12-07T18:36:00Z,28.8850,-90.0250,1019.1,1111122 
LOOP,urn:ioos:station:wmo:lopl1:1,2017-12-07T19:36:00Z,28.8850,-90.0250,1018.1,1111122 
LOOP,urn:ioos:station:wmo:lopl1:1,2017-12-07T20:36:00Z,28.8850,-90.0250,1018.1,1111122 
LOOP,urn:ioos:station:wmo:lopl1:1,2017-12-07T21:36:00Z,28.8850,-90.0250,1017.1,11111222 
LOOP,urn:ioos:station:wmo:lopl1:1,2017-12-07T22:36:00Z,28.8850,-90.0250,1017.1,11111222 
LOOP,urn:ioos:station:wmo:lopl1:1,2017-12-07T23:36:00Z,28.8850,-90.0250,1016.1,11111222 
LOOP,urn:ioos:station:wmo:lopl1:1,2017-12-08T00:36:00Z,28.8850,-90.0250,1017.1,11111222 
LOOP,urn:ioos:station:wmo:lopl1:1,2017-12-08T01:36:00Z,28.8850,-90.0250,1017.1,11111222 
LOOP,urn:ioos:station:wmo:lopl1:1,2017-12-08T02:36:00Z,28.8850,-90.0250,1017.1,11111222 
LOOP,urn:ioos:station:wmo:lopl1:1,2017-12-08T03:36:00Z,28.8850,-90.0250,1017.1,11111222 
LOOP,urn:ioos:station:wmo:lopl1:1,2017-12-08T04:36:00Z,28.8850,-90.0250,1017.1,11111222 
LOOP,urn:ioos:station:wmo:lopl1:1,2017-12-08T05:36:00Z,28.8850,-90.0250,1017.1,11111222 
LOOP,urn:ioos:station:wmo:lopl1:1,2017-12-08T06:36:00Z,28.8850,-90.0250,1015.1,11111222 
LOOP,urn:ioos:station:wmo:lopl1:1,2017-12-08T07:36:00Z,28.8850,-90.0250,1015.1,11111222 
LOOP,urn:ioos:station:wmo:lopl1:1,2017-12-08T08:36:00Z,28.8850,-90.0250,1014.1,11111222 
LOOP,urn:ioos:station:wmo:lopl1:1,2017-12-08T09:36:00Z,28.8850,-90.0250,1014.1,11111222 
LOOP,urn:ioos:station:wmo:lopl1:1,2017-12-08T10:36:00Z,28.8850,-90.0250,1015.1,11111222 
LOOP,urn:ioos:station:wmo:lopl1:1,2017-12-08T11:36:00Z,28.8850,-90.0250,1015.1,11111222 
LOOP,urn:ioos:station:wmo:lopl1:1,2017-12-08T12:36:00Z,28.8850,-90.0250,1016.1,11111222 
LOOP,urn:ioos:station:wmo:lopl1:1,2017-12-08T13:36:00Z,28.8850,-90.0250,1016.1,11111222 
LOOP,urn:ioos:station:wmo:lopl1:1,2017-12-08T14:36:00Z,28.8850,-90.0250,1015.1,11111222 
LOOP,urn:ioos:station:wmo:lopl1:1,2017-12-08T15:36:00Z,28.8850,-90.0250,1016.1,11111222 
LOOP,urn:ioos:station:wmo:lopl1:1,2017-12-08T16:36:00Z,28.8850,-90.0250,1016.1,11111222 
LOOP,urn:ioos:station:wmo:lopl1:1,2017-12-08T17:36:00Z,28.8850,-90.0250,1017.1,11111222 
LOOP,urn:ioos:station:wmo:lopl1:1,2017-12-08T18:36:00Z,28.8850,-90.0250,1014.1,11111222 
LOOP,urn:ioos:station:wmo:lopl1:1,2017-12-08T19:36:00Z,28.8850,-90.0250,1015.1,11111222 
LOOP,urn:ioos:station:wmo:lopl1:1,2017-12-08T20:36:00Z,28.8850,-90.0250,1015.1,11111222 
LOOP,urn:ioos:station:wmo:lopl1:1,2017-12-08T21:36:00Z,28.8850,-90.0250,1014.1,11111222 
LOOP,urn:ioos:station:wmo:lopl1:1,2017-12-08T22:36:00Z,28.8850,-90.0250,1015.1,11111222 
LOOP,urn:ioos:station:wmo:lopl1:1,2017-12-08T23:36:00Z,28.8850,-90.0250,1016.1,11111222 
LOOP,urn:ioos:station:wmo:lopl1:1,2017-12-09T00:36:00Z,28.8850,-90.0250,1017.1,11111222 
LOOP,urn:ioos:station:wmo:lopl1:1,2017-12-09T01:36:00Z,28.8850,-90.0250,1017.1,11111222 
LOOP,urn:ioos:station:wmo:lopl1:1,2017-12-09T02:36:00Z,28.8850,-90.0250,1019.1,11111222 
LOOP,urn:ioos:station:wmo:lopl1:1,2017-12-09T03:36:00Z,28.8850,-90.0250,1020.1,11111222 
LOOP,urn:ioos:station:wmo:lopl1:1,2017-12-09T04:36:00Z,28.8850,-90.0250,1020.1,11111222 
LOOP,urn:ioos:station:wmo:lopl1:1,2017-12-09T05:36:00Z,28.8850,-90.0250,1020.1,11111222 
LOOP,urn:ioos:station:wmo:lopl1:1,2017-12-09T06:36:00Z,28.8850,-90.0250,1021.1,11111222 
LOOP,urn:ioos:station:wmo:lopl1:1,2017-12-09T07:36:00Z,28.8850,-90.0250,1021.1,11111222 
LOOP,urn:ioos:station:wmo:lopl1:1,2017-12-09T08:36:00Z,28.8850,-90.0250,1021.1,11111222 
LOOP,urn:ioos:station:wmo:lopl1:1,2017-12-09T09:36:00Z,28.8850,-90.0250,1021.1,11111222 
LOOP,urn:ioos:station:wmo:lopl1:1,2017-12-09T10:36:00Z,28.8850,-90.0250,1021.1,11111222 
LOOP,urn:ioos:station:wmo:lopl1:1,2017-12-09T11:36:00Z,28.8850,-90.0250,1021.1,11111222 
LOOP,urn:ioos:station:wmo:lopl1:1,2017-12-09T12:41:00Z,28.8850,-90.0250,1022.1,11111222 
LOOP,urn:ioos:station:wmo:lopl1:1,2017-12-09T13:41:00Z,28.8850,-90.0250,1023.1,11111222 
LOOP,urn:ioos:station:wmo:lopl1:1,2017-12-09T14:41:00Z,28.8850,-90.0250,1024.1,11111222 
LOOP,urn:ioos:station:wmo:lopl1:1,2017-12-09T15:41:00Z,28.8850,-90.0250,1024.1,11111222 
LOOP,urn:ioos:station:wmo:lopl1:1,2017-12-09T16:41:00Z,28.8850,-90.0250,1024.1,11111222 
LOOP,urn:ioos:station:wmo:lopl1:1,2017-12-09T17:41:00Z,28.8850,-90.0250,1023.1,11111222 
LOOP,urn:ioos:station:wmo:lopl1:1,2017-12-09T18:41:00Z,28.8850,-90.0250,1023.1,11111222 
LOOP,urn:ioos:station:wmo:lopl1:1,2017-12-09T19:41:00Z,28.8850,-90.0250,1022.1,11111222 
LOOP,urn:ioos:station:wmo:lopl1:1,2017-12-09T20:41:00Z,28.8850,-90.0250,1022.1,11111222 
LOOP,urn:ioos:station:wmo:lopl1:1,2017-12-09T21:41:00Z,28.8850,-90.0250,1022.1,11111222 
LOOP,urn:ioos:station:wmo:lopl1:1,2017-12-09T22:41:00Z,28.8850,-90.0250,1023.1,11111222 
LOOP,urn:ioos:station:wmo:lopl1:1,2017-12-09T23:41:00Z,28.8850,-90.0250,1023.1,11111222 
LOOP,urn:ioos:station:wmo:lopl1:1,2017-12-10T00:41:00Z,28.8850,-90.0250,1024.1,11111222 
LOOP,urn:ioos:station:wmo:lopl1:1,2017-12-10T01:41:00Z,28.8850,-90.0250,1025.1,11111222 
LOOP,urn:ioos:station:wmo:lopl1:1,2017-12-10T02:41:00Z,28.8850,-90.0250,1025.1,11111222 
LOOP,urn:ioos:station:wmo:lopl1:1,2017-12-10T03:41:00Z,28.8850,-90.0250,1026.1,11111222 
LOOP,urn:ioos:station:wmo:lopl1:1,2017-12-10T04:41:00Z,28.8850,-90.0250,1027.1,11111222 
LOOP,urn:ioos:station:wmo:lopl1:1,2017-12-10T05:41:00Z,28.8850,-90.0250,1027.1,11111222 
LOOP,urn:ioos:station:wmo:lopl1:1,2017-12-10T06:41:00Z,28.8850,-90.0250,1027.1,11111222 
LOOP,urn:ioos:station:wmo:lopl1:1,2017-12-10T07:41:00Z,28.8850,-90.0250,1027.1,11111222 
LOOP,urn:ioos:station:wmo:lopl1:1,2017-12-10T08:41:00Z,28.8850,-90.0250,1027.1,11111222 
LOOP,urn:ioos:station:wmo:lopl1:1,2017-12-10T09:41:00Z,28.8850,-90.0250,1027.1,11111222 
LOOP,urn:ioos:station:wmo:lopl1:1,2017-12-10T10:41:00Z,28.8850,-90.0250,1027.1,11111222 
LOOP,urn:ioos:station:wmo:lopl1:1,2017-12-10T11:41:00Z,28.8850,-90.0250,1027.1,11111222 
LOOP,urn:ioos:station:wmo:lopl1:1,2017-12-10T12:41:00Z,28.8850,-90.0250,1028.1,11111222 
LOOP,urn:ioos:station:wmo:lopl1:1,2017-12-10T13:41:00Z,28.8850,-90.0250,1028.1,11111222 
LOOP,urn:ioos:station:wmo:lopl1:1,2017-12-10T14:41:00Z,28.8850,-90.0250,1029.1,11111222 
LOOP,urn:ioos:station:wmo:lopl1:1,2017-12-10T15:41:00Z,28.8850,-90.0250,1030.1,11111222 
LOOP,urn:ioos:station:wmo:lopl1:1,2017-12-10T16:41:00Z,28.8850,-90.0250,1030.1,11111222 
LOOP,urn:ioos:station:wmo:lopl1:1,2017-12-10T17:41:00Z,28.8850,-90.0250,1029.1,11111222 
LOOP,urn:ioos:station:wmo:lopl1:1,2017-12-10T18:41:00Z,28.8850,-90.0250,1028.1,11111222 
LOOP,urn:ioos:station:wmo:lopl1:1,2017-12-10T19:41:00Z,28.8850,-90.0250,1028.1,11111222 
LOOP,urn:ioos:station:wmo:lopl1:1,2017-12-10T20:41:00Z,28.8850,-90.0250,1028.1,11111222 
LOOP,urn:ioos:station:wmo:lopl1:1,2017-12-10T21:41:00Z,28.8850,-90.0250,1028.1,11111222 
LOOP,urn:ioos:station:wmo:lopl1:1,2017-12-10T22:41:00Z,28.8850,-90.0250,1028.1,11111222 
LOOP,urn:ioos:station:wmo:lopl1:1,2017-12-10T23:41:00Z,28.8850,-90.0250,1028.1,11111222 
LOOP,urn:ioos:station:wmo:lopl1:1,2017-12-11T00:41:00Z,28.8850,-90.0250,1028.1,11111222 
LOOP,urn:ioos:station:wmo:lopl1:1,2017-12-11T01:41:00Z,28.8850,-90.0250,1028.1,11111222 
LOOP,urn:ioos:station:wmo:lopl1:1,2017-12-11T02:41:00Z,28.8850,-90.0250,1028.1,11111222 
LOOP,urn:ioos:station:wmo:lopl1:1,2017-12-11T03:46:00Z,28.8850,-90.0250,1028.1,11111222 
LOOP,urn:ioos:station:wmo:lopl1:1,2017-12-11T04:46:00Z,28.8850,-90.0250,1028.1,11111222 
LOOP,urn:ioos:station:wmo:lopl1:1,2017-12-11T05:46:00Z,28.8850,-90.0250,1027.1,11111222 
LOOP,urn:ioos:station:wmo:lopl1:1,2017-12-11T06:46:00Z,28.8850,-90.0250,1027.1,11111222 
LOOP,urn:ioos:station:wmo:lopl1:1,2017-12-11T07:46:00Z,28.8850,-90.0250,1027.1,11111222 
LOOP,urn:ioos:station:wmo:lopl1:1,2017-12-11T08:46:00Z,28.8850,-90.0250,1027.1,11111222 
LOOP,urn:ioos:station:wmo:lopl1:1,2017-12-11T09:46:00Z,28.8850,-90.0250,1027.1,11111222 
LOOP,urn:ioos:station:wmo:lopl1:1,2017-12-11T10:46:00Z,28.8850,-90.0250,1027.1,11111222 
LOOP,urn:ioos:station:wmo:lopl1:1,2017-12-11T11:46:00Z,28.8850,-90.0250,1027.1,11111222 
LOOP,urn:ioos:station:wmo:lopl1:1,2017-12-11T12:46:00Z,28.8850,-90.0250,1027.1,11111222 
LOOP,urn:ioos:station:wmo:lopl1:1,2017-12-11T13:46:00Z,28.8850,-90.0250,1027.1,11111222 
LOOP,urn:ioos:station:wmo:lopl1:1,2017-12-11T14:46:00Z,28.8850,-90.0250,1027.1,11111222 
LOOP,urn:ioos:station:wmo:lopl1:1,2017-12-11T15:46:00Z,28.8850,-90.0250,1027.1,11111222 
LOOP,urn:ioos:station:wmo:lopl1:1,2017-12-11T16:46:00Z,28.8850,-90.0250,1027.1,11111222 
LOOP,urn:ioos:station:wmo:lopl1:1,2017-12-11T18:06:00Z,28.8850,-90.0250,1025.1,11111222 
LOOP,urn:ioos:station:wmo:lopl1:1,2017-12-11T19:06:00Z,28.8850,-90.0250,1024.1,11111222 
LOOP,urn:ioos:station:wmo:lopl1:1,2017-12-11T20:06:00Z,28.8850,-90.0250,1023.1,11111222 
LOOP,urn:ioos:station:wmo:lopl1:1,2017-12-11T21:06:00Z,28.8850,-90.0250,1023.1,11111222 
LOOP,urn:ioos:station:wmo:lopl1:1,2017-12-11T22:06:00Z,28.8850,-90.0250,1023.1,11111222 
LOOP,urn:ioos:station:wmo:lopl1:1,2017-12-11T23:06:00Z,28.8850,-90.0250,1022.1,11111222 
LOOP,urn:ioos:station:wmo:lopl1:1,2017-12-12T00:06:00Z,28.8850,-90.0250,1022.1,11111222 
LOOP,urn:ioos:station:wmo:lopl1:1,2017-12-12T01:06:00Z,28.8850,-90.0250,1022.1,11111222 
LOOP,urn:ioos:station:wmo:lopl1:1,2017-12-12T02:06:00Z,28.8850,-90.0250,1022.1,11111222 
LOOP,urn:ioos:station:wmo:lopl1:1,2017-12-12T03:06:00Z,28.8850,-90.0250,1022.1,11111222 
LOOP,urn:ioos:station:wmo:lopl1:1,2017-12-12T04:06:00Z,28.8850,-90.0250,1022.1,11111222 
LOOP,urn:ioos:station:wmo:lopl1:1,2017-12-12T05:11:00Z,28.8850,-90.0250,1022.1,11111222 
LOOP,urn:ioos:station:wmo:lopl1:1,2017-12-12T06:11:00Z,28.8850,-90.0250,1021.1,11111222 